When you browse on this site, cookies collect data to enhance your experience and personalize the content and advertising you see.
Visit our Privacy Policy to learn more. By continuing to use the site, you agree to this use of cookies and data.
  • In Hungary
  • List of Countries
  • For 7 days
  • Water Temperature
  • Weather Map
  • News
  • Weather Widgets
  • user-avatar
    Login

    Hourly Weather Mszczonow

    Today, 14 November, Thursday

    Time Temperature Precipitation Wind Pressure Humidity
    00:00 +8°C° 0.1 mm 4 mps 737 mmHg 87%
    01:00 +6°C° 0 mm 4 mps 738 mmHg 90%
    02:00 +5°C° 0.4 mm 4 mps 738 mmHg 89%
    03:00 +5°C° 0.4 mm 4 mps 739 mmHg 88%
    04:00 +5°C° 0.4 mm 4 mps 739 mmHg 86%
    05:00 +5°C° 0 mm 3 mps 740 mmHg 86%
    06:00 +4°C° 0 mm 3 mps 741 mmHg 86%
    07:00 +5°C° 0 mm 2 mps 742 mmHg 84%
    08:00 +5°C° 0 mm 2 mps 743 mmHg 82%
    09:00 +5°C° 0 mm 2 mps 744 mmHg 79%
    10:00 +6°C° 0 mm 2 mps 744 mmHg 77%
    11:00 +6°C° 0 mm 2 mps 745 mmHg 74%
    12:00 +8°C° 0 mm 1 mps 745 mmHg 72%
    13:00 +8°C° 0 mm 1 mps 745 mmHg 69%
    14:00 +8°C° 0 mm 1 mps 745 mmHg 72%
    15:00 +7°C° 0 mm 1 mps 745 mmHg 75%
    16:00 +6°C° 0 mm 2 mps 745 mmHg 77%
    17:00 +6°C° 0 mm 2 mps 745 mmHg 79%
    18:00 +5°C° 0 mm 2 mps 746 mmHg 81%
    19:00 +4°C° 0 mm 3 mps 746 mmHg 83%
    20:00 +4°C° 0 mm 3 mps 746 mmHg 84%
    21:00 +4°C° 0 mm 3 mps 745 mmHg 86%
    22:00 +4°C° 0 mm 3 mps 745 mmHg 87%
    23:00 +4°C° 0 mm 3 mps 745 mmHg 88%

    Tomorrow, 15 November, Friday

    Time Temperature Precipitation Wind Pressure Humidity
    00:00 +4°C° 0 mm 3 mps 745 mmHg 89%
    01:00 +4°C° 0 mm 3 mps 745 mmHg 90%
    02:00 +5°C° 0.1 mm 3 mps 745 mmHg 92%
    03:00 +6°C° 0.1 mm 4 mps 744 mmHg 93%
    04:00 +6°C° 0.1 mm 4 mps 744 mmHg 95%
    05:00 +7°C° 0 mm 4 mps 744 mmHg 95%
    06:00 +7°C° 0 mm 4 mps 744 mmHg 95%
    07:00 +8°C° 0 mm 4 mps 744 mmHg 96%
    08:00 +8°C° 0 mm 4 mps 744 mmHg 92%
    09:00 +10°C° 0 mm 4 mps 744 mmHg 88%
    10:00 +10°C° 0 mm 4 mps 744 mmHg 84%
    11:00 +10°C° 0 mm 5 mps 744 mmHg 82%
    12:00 +10°C° 0 mm 5 mps 744 mmHg 80%
    13:00 +10°C° 0 mm 5 mps 744 mmHg 78%
    14:00 +10°C° 0 mm 5 mps 744 mmHg 81%
    15:00 +10°C° 0 mm 4 mps 744 mmHg 83%
    16:00 +10°C° 0 mm 4 mps 744 mmHg 86%
    17:00 +8°C° 0 mm 4 mps 744 mmHg 88%
    18:00 +8°C° 0 mm 4 mps 744 mmHg 90%
    19:00 +8°C° 0 mm 5 mps 744 mmHg 93%
    20:00 +8°C° 0 mm 5 mps 744 mmHg 93%
    21:00 +8°C° 0 mm 4 mps 744 mmHg 93%
    22:00 +8°C° 0 mm 4 mps 744 mmHg 93%
    23:00 +8°C° 0 mm 4 mps 744 mmHg 92%

    Day after tomorrow, 16 November, Saturday

    Time Temperature Precipitation Wind Pressure Humidity
    00:00 +8°C° 0 mm 4 mps 744 mmHg 92%
    01:00 +8°C° 0 mm 4 mps 744 mmHg 92%
    02:00 +8°C° 0 mm 4 mps 744 mmHg 92%
    03:00 +8°C° 0 mm 4 mps 744 mmHg 92%
    04:00 +8°C° 0 mm 4 mps 743 mmHg 92%
    05:00 +8°C° 0 mm 4 mps 743 mmHg 92%
    06:00 +7°C° 0 mm 4 mps 743 mmHg 91%
    07:00 +7°C° 0 mm 4 mps 743 mmHg 91%
    08:00 +9°C° 0 mm 5 mps 743 mmHg 84%
    09:00 +10°C° 0 mm 5 mps 743 mmHg 77%
    10:00 +13°C° 0 mm 6 mps 743 mmHg 70%
    11:00 +14°C° 0 mm 6 mps 743 mmHg 66%
    12:00 +15°C° 0 mm 6 mps 743 mmHg 61%
    13:00 +16°C° 0 mm 6 mps 743 mmHg 57%
    14:00 +15°C° 0 mm 6 mps 743 mmHg 61%
    15:00 +14°C° 0 mm 5 mps 743 mmHg 65%
    16:00 +13°C° 0 mm 4 mps 743 mmHg 68%
    17:00 +13°C° 0 mm 5 mps 744 mmHg 69%
    18:00 +12°C° 0 mm 5 mps 745 mmHg 70%
    19:00 +12°C° 0 mm 5 mps 746 mmHg 71%
    20:00 +11°C° 0 mm 4 mps 746 mmHg 74%
    21:00 +10°C° 0 mm 3 mps 747 mmHg 77%
    22:00 +9°C° 0 mm 2 mps 748 mmHg 81%
    23:00 +10°C° 0 mm 1 mps 748 mmHg 82%

    17 November, Sunday

    Time Temperature Precipitation Wind Pressure Humidity
    00:00 +9°C° 0 mm 1 mps 748 mmHg 83%
    01:00 +8°C° 0 mm 0 mps 749 mmHg 85%
    02:00 +9°C° 0 mm 1 mps 748 mmHg 85%
    03:00 +9°C° 0 mm 1 mps 748 mmHg 86%
    04:00 +8°C° 0 mm 2 mps 748 mmHg 87%
    05:00 +8°C° 0 mm 2 mps 748 mmHg 87%
    06:00 +8°C° 0 mm 3 mps 748 mmHg 88%
    07:00 +8°C° 0 mm 3 mps 748 mmHg 88%
    08:00 +9°C° 0 mm 3 mps 748 mmHg 84%
    09:00 +10°C° 0 mm 4 mps 748 mmHg 79%
    10:00 +10°C° 0 mm 5 mps 748 mmHg 75%
    11:00 +12°C° 0 mm 5 mps 748 mmHg 72%
    12:00 +13°C° 0 mm 5 mps 747 mmHg 69%
    13:00 +14°C° 0 mm 5 mps 747 mmHg 66%
    14:00 +13°C° 0 mm 5 mps 746 mmHg 68%
    15:00 +12°C° 0 mm 5 mps 746 mmHg 70%
    16:00 +10°C° 0 mm 5 mps 746 mmHg 73%
    17:00 +10°C° 0 mm 5 mps 745 mmHg 75%
    18:00 +10°C° 0 mm 5 mps 745 mmHg 78%
    19:00 +9°C° 0 mm 5 mps 745 mmHg 81%
    20:00 +9°C° 0 mm 5 mps 745 mmHg 84%
    21:00 +8°C° 0 mm 5 mps 745 mmHg 87%
    22:00 +8°C° 0 mm 5 mps 744 mmHg 90%
    23:00 +8°C° 0 mm 5 mps 744 mmHg 90%

    18 November, Monday

    Time Temperature Precipitation Wind Pressure Humidity
    00:00 +8°C° 0 mm 5 mps 744 mmHg 91%
    01:00 +7°C° 0 mm 5 mps 743 mmHg 91%
    02:00 +7°C° 0 mm 5 mps 743 mmHg 91%
    03:00 +7°C° 0 mm 5 mps 743 mmHg 91%
    04:00 +7°C° 0 mm 5 mps 742 mmHg 92%
    05:00 +7°C° 0 mm 5 mps 742 mmHg 90%
    06:00 +7°C° 0 mm 5 mps 742 mmHg 89%
    07:00 +7°C° 0 mm 5 mps 742 mmHg 88%
    08:00 +8°C° 0 mm 5 mps 742 mmHg 83%
    09:00 +9°C° 0 mm 5 mps 742 mmHg 77%
    10:00 +9°C° 0 mm 6 mps 742 mmHg 72%
    11:00 +10°C° 0 mm 5 mps 742 mmHg 69%
    12:00 +12°C° 0 mm 5 mps 741 mmHg 66%
    13:00 +13°C° 0 mm 5 mps 741 mmHg 62%
    14:00 +12°C° 0 mm 5 mps 741 mmHg 65%
    15:00 +12°C° 0 mm 5 mps 741 mmHg 68%
    16:00 +10°C° 0 mm 5 mps 741 mmHg 71%
    17:00 +10°C° 0 mm 5 mps 741 mmHg 73%
    18:00 +10°C° 0 mm 5 mps 742 mmHg 75%
    19:00 +10°C° 0 mm 4 mps 742 mmHg 77%
    20:00 +10°C° 0 mm 4 mps 743 mmHg 77%
    21:00 +8°C° 0 mm 4 mps 743 mmHg 76%
    22:00 +8°C° 0 mm 4 mps 744 mmHg 76%
    23:00 +8°C° 0 mm 4 mps 744 mmHg 77%

    19 November, Tuesday

    Time Temperature Precipitation Wind Pressure Humidity
    00:00 +8°C° 0 mm 3 mps 745 mmHg 78%
    01:00 +8°C° 0 mm 3 mps 745 mmHg 78%
    02:00 +8°C° 0 mm 3 mps 746 mmHg 80%
    03:00 +7°C° 0 mm 3 mps 746 mmHg 82%
    04:00 +7°C° 0 mm 3 mps 746 mmHg 83%
    05:00 +7°C° 0 mm 3 mps 746 mmHg 82%
    06:00 +7°C° 0 mm 3 mps 747 mmHg 80%
    07:00 +7°C° 0 mm 3 mps 747 mmHg 79%
    08:00 +7°C° 0 mm 2 mps 747 mmHg 75%
    09:00 +8°C° 0 mm 2 mps 748 mmHg 72%
    10:00 +10°C° 0 mm 1 mps 748 mmHg 69%
    11:00 +11°C° 0 mm 1 mps 748 mmHg 67%
    12:00 +11°C° 0 mm 1 mps 748 mmHg 65%
    13:00 +12°C° 0 mm 1 mps 748 mmHg 63%
    14:00 +11°C° 0 mm 1 mps 748 mmHg 66%
    15:00 +11°C° 0 mm 1 mps 748 mmHg 69%
    16:00 +9°C° 0 mm 2 mps 747 mmHg 73%
    17:00 +10°C° 0 mm 1 mps 747 mmHg 75%
    18:00 +10°C° 0 mm 1 mps 748 mmHg 77%
    19:00 +10°C° 0 mm 1 mps 748 mmHg 79%
    20:00 +10°C° 0 mm 1 mps 748 mmHg 81%
    21:00 +9°C° 0 mm 1 mps 747 mmHg 83%
    22:00 +9°C° 0 mm 1 mps 747 mmHg 86%
    23:00 +9°C° 0 mm 1 mps 747 mmHg 87%
    Show more